Temperature
5 5 4 4 4 4 4 4 3 3 4 4 4 5 5 5 5 5 5 5 5 5 5 5 5 5 5 5 5 5 5 5 5 4 4 4 4 4
4 4 4 4 4 3 3 3 3 3 3 3 4 4 4 4 4 4 4 5 5 5 5 5 5 5 4 4 4 4 4 4 4 4 4 4 4 4
4 4 4 3 3 3 3 3 3 3 2 3 3 3 4 4 4 4 4 4 4 4 4 4 4 4 4 4 4 4 3 4 3 3 4 3 3 3
3 3 3 3 3 3 2 2 2 2 2 2 2 3 3 3 3 3 3 3 3 3 3 3 3 3 3 3 3 3 3 3 3 3 3 3 3 3
3 2 2 2 2 2 2 2 2 2 2 2 2 2 2 2 2 3 3 3 3 3 3 3 3 3 3 3 3 3 3 3 3 3 3 2 2 2
2 2 2 2 2 2 2 2 2 2 1 1 1 1 2 2 2 2 2 2 2 2 2 2 2 2 2 2 2 2 2 2 2 2 2 2 2 2
1 1 1 1 1 1 1 1 1 1 1 1 1 1 1 1 1 1 1 1 1 1 2 2 2 2 2 2 2 2 2 2 2 2 2 2 2 2
1 1 1 1 1 1 1 1 1 1 1 0 0 0 1 1 0 0 0 0 0 1 1 1 1 1 1 1 1 1 1 1 1 1 1 1 1 1
0 0 0 0 0 0 0 0 0 0 0 0 0 0 0 0 0 -0 -0 -0 -0 0 0 0 1 1 1 1 1 1 1 0 0 1 1 1 1 1
-0 -0 -0 -0 -0 -0 -0 -0 -0 -0 -0 -0 -0 -0 -0 -0 -0 -0 -0 -0 -0 -0 -0 -1 -0 0 0 0 0 0 0 0 -0 0 0 0 0 0
-1 -1 -1 -1 -1 -1 -1 -1 -1 -0 -0 -1 -1 -1 -1 -1 -1 -1 -1 -1 -1 -1 -1 -1 -1 -1 -0 -0 -0 -0 -0 -0 -0 -0 -0 -1 -1 -0
-1 -1 -1 -1 -1 -1 -1 -2 -1 -1 -1 -1 -1 -1 -1 -1 -1 -1 -1 -1 -2 -2 -1 -2 -2 -2 -2 -1 -1 -1 -1 -1 -1 -1 -1 -1 -1 -1
-2 -2 -2 -2 -2 -2 -2 -2 -2 -2 -2 -2 -2 -2 -2 -2 -2 -2 -2 -2 -2 -2 -2 -2 -2 -2 -3 -2 -1 -1 -2 -2 -2 -2 -2 -2 -2 -2
-3 -3 -3 -3 -3 -3 -3 -3 -3 -3 -3 -3 -3 -3 -2 -2 -2 -2 -2 -2 -2 -2 -2 -3 -3 -3 -3 -3 -3 -2 -2 -2 -2 -2 -2 -2 -2 -2
-3 -3 -3 -3 -3 -3 -3 -3 -3 -3 -3 -3 -3 -3 -3 -3 -3 -3 -3 -3 -3 -3 -3 -3 -3 -3 -3 -4 -4 -3 -3 -3 -3 -3 -3 -3 -3 -2
-3 -3 -3 -3 -3 -4 -3 -3 -3 -4 -4 -4 -4 -4 -4 -4 -4 -4 -4 -3 -4 -3 -3 -4 -4 -4 -4 -4 -4 -4 -4 -4 -4 -4 -4 -3 -3 -3
-4 -4 -4 -4 -4 -4 -4 -4 -4 -4 -4 -4 -4 -4 -4 -4 -4 -4 -4 -4 -5 -4 -4 -4 -4 -4 -5 -5 -4 -4 -5 -5 -4 -5 -4 -4 -3 -3
-4 -4 -4 -4 -4 -5 -4 -4 -4 -4 -4 -4 -5 -5 -5 -5 -5 -5 -5 -5 -5 -5 -5 -5 -5 -5 -5 -5 -5 -5 -5 -5 -5 -5 -5 -5 -4 -4
-5 -5 -5 -5 -5 -5 -5 -5 -5 -5 -5 -5 -5 -5 -5 -5 -5 -5 -5 -5 -5 -6 -5 -5 -5 -6 -6 -6 -6 -5 -6 -5 -5 -5 -5 -5 -5 -5
-5 -5 -5 -5 -5 -5 -5 -5 -5 -5 -5 -5 -5 -5 -5 -5 -5 -6 -6 -6 -6 -6 -6 -6 -6 -6 -6 -6 -6 -6 -6 -6 -6 -6 -6 -6 -5 -5
-5 -5 -5 -6 -6 -5 -5 -5 -5 -5 -5 -5 -5 -5 -5 -6 -6 -6 -6 -6 -6 -6 -7 -6 -6 -6 -7 -7 -7 -6 -6 -6 -6 -6 -6 -6 -6 -5
-6 -6 -6 -6 -6 -6 -6 -6 -6 -6 -6 -6 -6 -6 -6 -6 -6 -6 -6 -6 -7 -7 -7 -7 -7 -7 -7 -7 -7 -7 -6 -6 -6 -6 -6 -6 -7 -6
-6 -6 -6 -6 -6 -6 -6 -6 -6 -6 -6 -6 -6 -6 -6 -6 -6 -6 -7 -7 -7 -7 -7 -7 -7 -7 -7 -7 -7 -7 -7 -7 -7 -6 -6 -6 -6 -6
Wind_Speed
3 3 2 2 2 2 2 2 2 3 4 3 2 2 2 3 4 5 5 8 9 10 9 9 9 9 9 9 10 10 10 11 11 11 12 12 12 12
3 3 3 2 2 2 2 3 3 4 5 3 3 3 3 4 6 5 6 8 8 9 10 10 9 9 10 10 10 11 11 11 12 12 13 13 13 12
3 4 4 4 3 3 3 3 4 3 6 5 4 3 3 4 5 5 6 6 7 9 10 10 10 10 10 10 10 11 11 11 11 12 12 13 13 12
4 4 5 4 4 4 3 4 4 4 5 6 4 3 5 4 4 4 4 5 6 9 10 10 10 11 11 11 11 11 11 11 11 11 12 13 13 13
4 5 5 4 5 4 4 5 4 4 4 5 5 4 4 4 4 4 5 4 6 7 9 10 10 10 11 11 11 11 10 10 11 11 12 12 12 12
4 5 5 5 5 5 5 5 4 4 4 5 5 4 4 4 3 4 5 4 4 4 7 9 10 10 10 11 11 10 10 10 11 11 11 11 11 11
4 5 5 6 7 6 5 4 4 4 4 5 5 4 4 3 4 3 5 5 5 3 4 4 5 5 6 9 10 11 11 11 12 12 12 12 12 11
5 5 5 6 7 9 9 8 7 6 6 6 6 6 6 5 4 4 5 5 4 3 3 5 3 4 4 6 9 10 11 11 12 12 12 12 12 12
5 5 5 5 5 4 7 8 8 10 10 8 8 8 7 6 5 6 6 6 6 3 3 5 3 5 4 7 10 11 11 11 11 11 11 11 11 11
5 5 5 4 5 5 5 5 6 6 8 7 7 7 6 6 7 7 7 6 4 3 3 4 3 4 5 6 10 10 10 10 10 10 10 11 11 11
5 5 5 5 8 8 5 5 6 6 7 9 11 10 11 10 8 4 4 4 5 3 2 2 3 3 4 4 6 9 9 9 9 10 10 11 11 11
4 5 7 8 9 9 5 5 7 6 5 6 7 8 7 7 8 5 4 4 3 3 2 1 2 2 3 3 3 4 5 8 9 10 10 11 11 7
4 4 5 9 10 10 8 6 8 7 5 5 5 5 4 4 4 3 3 4 4 4 2 1 2 2 3 3 3 3 3 3 5 6 8 10 11 8
5 4 5 9 10 10 8 8 10 8 4 4 4 4 4 3 3 3 3 3 3 4 4 3 3 3 3 4 4 3 3 3 3 4 4 8 9 10
5 7 8 9 9 8 9 10 7 4 3 4 4 4 4 3 3 2 1 2 2 3 3 4 3 3 3 4 4 4 5 4 3 3 4 4 5 5
5 6 8 9 8 8 7 6 4 4 3 4 4 4 3 2 2 2 2 1 2 2 2 3 3 3 4 4 5 5 5 4 3 4 4 5 5 5
4 3 3 3 4 4 4 4 3 3 4 3 3 3 3 3 3 2 2 2 3 3 2 2 2 2 4 4 5 5 5 4 4 4 5 6 6 5
5 4 4 4 4 4 4 4 4 4 4 3 3 4 4 4 3 2 2 3 3 3 3 2 1 2 3 3 5 5 4 4 4 4 4 5 7 5
4 4 4 5 5 4 5 5 4 4 3 3 4 4 4 4 3 3 3 3 3 3 3 2 2 2 4 5 3 4 4 4 4 4 4 5 7 6
3 4 5 5 5 5 5 5 4 4 3 4 4 4 4 4 4 4 4 3 3 3 3 3 3 3 4 5 4 4 6 5 5 5 5 5 5 8
4 4 5 5 5 5 5 5 4 4 4 4 4 4 4 4 4 4 4 4 3 3 4 4 4 4 3 2 3 3 3 6 6 5 5 5 5 4
4 5 5 5 5 5 4 4 4 4 4 4 4 4 4 4 4 4 3 3 3 3 3 3 2 2 2 3 4 4 4 5 5 6 6 6 3 3
4 5 4 4 4 4 4 4 4 4 4 4 3 3 3 3 3 3 3 3 3 2 2 2 2 2 2 3 3 4 4 5 4 4 4 6 6 7
Wind_Direction
227 222 227 243 251 250 242 229 230 265 271 266 284 285 287 273 274 276 275 279 273 266 263 260 258 260 262 266 269 271 273 272 272 270 271 271 270 271
231 225 225 230 238 241 239 247 237 237 258 270 271 292 305 303 290 285 276 280 276 271 265 260 258 259 264 268 270 272 273 274 270 268 268 269 269 268
245 235 234 232 234 238 244 247 247 242 259 275 278 285 289 291 289 279 276 272 269 266 266 264 262 261 261 265 268 271 273 274 272 269 267 266 266 268
246 242 241 241 241 239 239 243 248 249 252 269 283 288 284 279 275 279 286 277 270 266 263 264 264 263 263 265 265 268 270 272 273 273 272 268 265 265
250 247 246 241 243 245 241 243 246 255 256 263 275 284 288 284 287 292 289 278 271 268 268 266 266 267 268 267 267 266 267 269 272 273 273 268 265 265
256 250 248 244 247 246 246 245 249 249 255 263 270 278 284 283 279 283 290 283 281 278 273 271 267 267 269 271 271 269 268 269 271 274 273 271 268 266
260 255 255 255 255 256 257 250 250 249 255 259 267 276 275 278 268 270 279 285 279 263 268 262 261 256 260 267 268 269 270 271 272 273 270 268 266 265
269 263 262 258 260 264 265 262 253 248 249 251 260 264 263 262 266 270 277 283 275 244 259 270 253 262 256 256 265 273 274 274 276 276 272 267 264 264
270 271 275 272 273 267 272 272 269 267 260 254 254 257 260 256 258 262 263 267 271 260 267 268 254 261 262 269 274 273 274 278 279 281 279 273 269 266
264 265 269 267 266 270 269 269 270 273 271 264 259 262 265 257 248 252 260 268 279 262 243 259 263 264 274 264 272 273 275 277 281 282 286 284 278 274
263 261 264 262 271 277 275 272 277 279 283 281 283 281 278 277 272 264 255 259 275 265 243 242 264 284 280 266 263 271 275 278 283 286 288 290 286 281
267 262 264 267 270 274 268 265 271 277 286 291 289 288 281 274 271 253 236 244 268 262 238 241 271 311 295 273 252 265 275 281 285 288 289 289 291 287
272 271 271 275 275 275 273 261 266 277 276 273 276 277 274 264 258 260 246 233 244 255 234 232 272 271 263 288 294 276 260 269 282 284 287 288 290 287
269 271 274 281 282 281 278 277 280 284 275 272 272 269 266 265 263 260 261 265 255 259 238 220 245 248 267 283 283 285 287 275 272 277 276 291 290 285
273 277 280 283 286 283 279 279 281 273 265 264 265 268 267 269 267 275 294 305 316 296 250 240 238 239 250 268 278 283 294 287 263 268 279 281 279 281
282 278 279 280 284 283 280 276 267 256 255 256 262 263 264 262 257 254 268 278 298 312 301 272 246 236 262 271 272 279 279 270 280 285 283 283 280 270
284 274 270 273 271 272 272 264 255 257 261 254 258 262 264 263 263 254 256 252 259 269 289 300 300 271 259 260 268 265 271 277 275 283 290 291 286 272
282 269 265 265 262 265 267 265 256 253 255 257 257 254 255 254 259 255 248 247 253 258 261 258 278 309 307 285 248 256 264 274 281 281 278 287 290 283
268 264 265 266 265 263 266 265 263 258 254 253 253 254 254 252 249 247 240 241 252 255 256 250 246 262 285 292 276 244 265 281 283 285 276 275 281 287
264 262 266 270 267 262 261 263 263 261 256 252 251 248 245 248 249 244 237 236 247 260 264 253 248 252 262 270 278 285 274 268 275 280 286 286 283 286
272 267 264 265 268 265 261 257 253 251 252 253 252 251 248 244 245 242 238 246 252 250 258 265 267 290 295 292 288 289 285 282 279 279 285 292 295 291
275 270 269 267 268 269 267 258 253 252 250 252 254 253 249 242 241 238 235 233 238 248 264 276 278 292 290 279 278 286 301 311 313 304 286 275 271 265
279 279 278 275 270 267 265 259 254 254 252 251 251 252 248 244 240 236 235 233 235 241 252 274 284 289 287 273 275 286 296 308 315 322 312 308 297 281
Height
1488 1488 1489 1490 1491 1491 1492 1492 1493 1491 1490 1490 1490 1489 1489 1488 1487 1487 1486 1486 1485 1485 1484 1484 1483 1483 1482 1482 1482 1482 1482 1481 1481 1481 1481 1481 1481 1480
1483 1484 1485 1486 1487 1487 1488 1488 1489 1488 1486 1485 1485 1485 1484 1483 1483 1482 1481 1481 1480 1480 1479 1479 1478 1477 1477 1476 1476 1476 1475 1475 1475 1475 1475 1475 1475 1474
1479 1479 1480 1481 1482 1482 1483 1483 1484 1484 1482 1480 1481 1480 1480 1479 1478 1477 1476 1475 1474 1474 1474 1473 1473 1472 1471 1471 1470 1470 1469 1469 1469 1469 1468 1468 1468 1468
1475 1475 1475 1476 1477 1477 1478 1478 1478 1478 1477 1476 1475 1475 1474 1473 1473 1472 1471 1470 1469 1468 1468 1468 1467 1466 1465 1465 1464 1464 1463 1463 1463 1462 1462 1462 1462 1462
1470 1471 1471 1471 1471 1472 1473 1473 1473 1473 1472 1471 1470 1470 1469 1468 1467 1466 1466 1465 1464 1463 1463 1462 1462 1461 1460 1459 1458 1458 1457 1457 1457 1456 1456 1456 1456 1456
1466 1466 1466 1466 1467 1467 1467 1467 1467 1467 1467 1466 1465 1464 1463 1463 1462 1461 1459 1459 1458 1457 1457 1457 1456 1455 1454 1453 1453 1452 1451 1451 1451 1450 1450 1450 1450 1450
1461 1461 1461 1462 1462 1462 1463 1462 1462 1462 1461 1461 1459 1459 1458 1458 1457 1455 1454 1453 1452 1452 1451 1450 1450 1449 1448 1447 1447 1446 1445 1445 1445 1444 1444 1444 1443 1443
1457 1457 1457 1457 1457 1457 1458 1458 1458 1457 1456 1455 1454 1453 1452 1452 1452 1451 1449 1447 1445 1446 1445 1443 1444 1443 1442 1442 1441 1441 1440 1440 1439 1438 1438 1437 1437 1437
1452 1452 1452 1452 1452 1452 1452 1452 1452 1452 1452 1451 1449 1448 1447 1447 1446 1445 1444 1442 1440 1440 1439 1437 1438 1437 1437 1436 1436 1436 1435 1434 1433 1433 1432 1431 1431 1431
1447 1447 1447 1447 1447 1447 1446 1446 1446 1446 1445 1445 1444 1443 1443 1442 1441 1440 1439 1437 1436 1435 1435 1432 1431 1431 1431 1430 1430 1430 1429 1429 1428 1427 1426 1425 1425 1425
1442 1442 1442 1442 1442 1442 1441 1441 1440 1439 1440 1439 1439 1438 1437 1437 1436 1435 1433 1432 1429 1429 1429 1428 1426 1425 1424 1424 1424 1424 1424 1423 1422 1421 1421 1420 1420 1419
1437 1437 1437 1437 1437 1436 1436 1435 1434 1434 1433 1432 1432 1431 1430 1430 1430 1429 1428 1427 1424 1423 1423 1423 1422 1421 1418 1418 1418 1418 1418 1417 1417 1416 1415 1415 1414 1413
1431 1431 1431 1431 1431 1431 1431 1430 1429 1429 1428 1427 1426 1425 1424 1424 1423 1423 1423 1422 1420 1419 1419 1419 1417 1417 1416 1413 1412 1413 1412 1411 1411 1410 1410 1409 1409 1408
1426 1426 1426 1426 1425 1425 1425 1424 1424 1423 1422 1421 1420 1419 1419 1418 1417 1417 1417 1416 1416 1415 1414 1414 1413 1412 1411 1409 1407 1407 1407 1406 1406 1405 1404 1404 1403 1402
1422 1421 1421 1420 1420 1419 1419 1418 1418 1418 1417 1416 1415 1414 1414 1413 1412 1412 1411 1410 1410 1410 1409 1409 1409 1408 1407 1405 1403 1402 1401 1400 1400 1400 1399 1398 1397 1396
1417 1416 1415 1415 1414 1414 1413 1413 1413 1412 1412 1411 1410 1409 1409 1408 1407 1406 1406 1405 1404 1404 1404 1404 1404 1403 1402 1400 1399 1397 1397 1396 1395 1395 1394 1392 1392 1391
1412 1411 1410 1409 1408 1408 1408 1407 1407 1407 1406 1406 1405 1404 1404 1403 1402 1401 1401 1401 1400 1398 1398 1398 1398 1398 1397 1396 1394 1393 1392 1391 1390 1390 1388 1386 1385 1385
1407 1406 1405 1404 1403 1403 1402 1402 1402 1402 1401 1401 1400 1399 1399 1398 1397 1396 1396 1396 1395 1394 1394 1393 1393 1392 1392 1391 1391 1389 1388 1386 1385 1385 1384 1381 1379 1379
1403 1401 1400 1399 1399 1398 1398 1397 1397 1397 1396 1396 1395 1394 1394 1393 1392 1392 1391 1391 1391 1390 1390 1389 1388 1388 1386 1385 1385 1386 1384 1382 1381 1380 1379 1377 1375 1373
1398 1397 1396 1395 1394 1394 1393 1393 1392 1392 1391 1391 1390 1390 1389 1388 1388 1387 1387 1386 1386 1386 1385 1385 1384 1384 1383 1382 1380 1379 1380 1379 1377 1375 1374 1372 1370 1369
1393 1392 1391 1390 1390 1389 1388 1388 1387 1387 1386 1386 1385 1385 1384 1383 1383 1383 1382 1382 1382 1382 1381 1380 1380 1381 1380 1378 1377 1375 1375 1375 1373 1372 1369 1367 1365 1363
1388 1388 1387 1386 1385 1384 1383 1383 1382 1381 1381 1381 1380 1380 1379 1379 1378 1378 1378 1378 1377 1377 1377 1377 1376 1376 1375 1374 1372 1371 1369 1369 1369 1368 1367 1365 1363 1360
1384 1383 1382 1381 1380 1379 1379 1378 1377 1376 1376 1376 1375 1375 1375 1375 1374 1374 1374 1374 1374 1374 1373 1372 1372 1372 1371 1370 1369 1367 1366 1365 1364 1363 1362 1361 1360 1359